Apalachia Observed Data For Previous 48 Hours

Caption
Day and Hour Reservoir Elevation (behind dam)* Tailwater Elevation (below dam)* Average Hourly Discharge*
4/21/2018 2 AM EDT 1,277.60 837.72 30
4/21/2018 3 AM EDT 1,277.62 837.72 30
4/21/2018 4 AM EDT 1,277.64 837.94 44
4/21/2018 5 AM EDT 1,277.60 837.75 777
4/21/2018 6 AM EDT 1,277.60 837.71 30
4/21/2018 7 AM EDT 1,277.61 837.71 30
4/21/2018 8 AM EDT 1,277.61 837.80 35
4/21/2018 9 AM EDT 1,277.53 837.74 773
4/21/2018 10 AM EDT 1,277.57 837.70 30
4/21/2018 11 AM EDT 1,277.62 837.70 30
4/21/2018 12 PM EDT 1,277.58 837.71 31
4/21/2018 1 PM EDT 1,277.58 837.74 762
4/21/2018 2 PM EDT 1,277.52 837.70 30
4/21/2018 3 PM EDT 1,277.59 837.70 30
4/21/2018 4 PM EDT 1,277.57 837.92 43
4/21/2018 5 PM EDT 1,277.49 837.73 777
4/21/2018 6 PM EDT 1,277.49 837.70 30
4/21/2018 7 PM EDT 1,277.49 837.69 30
4/21/2018 8 PM EDT 1,277.51 837.96 47
4/21/2018 9 PM EDT 1,277.51 837.73 778
4/21/2018 10 PM EDT 1,277.52 837.69 30
4/21/2018 11 PM EDT 1,277.46 837.69 30
4/22/2018 12 AM EDT 1,277.50 837.78 35
4/22/2018 1 AM EDT 1,277.49 837.73 772
4/22/2018 2 AM EDT 1,277.02 837.69 30
4/22/2018 3 AM EDT 1,276.87 837.69 30
4/22/2018 4 AM EDT 1,276.67 837.94 46
4/22/2018 5 AM EDT 1,276.44 837.72 754
4/22/2018 6 AM EDT 1,276.44 837.69 30
4/22/2018 7 AM EDT 1,276.18 837.68 30
4/22/2018 8 AM EDT 1,276.04 837.94 47
4/22/2018 9 AM EDT 1,276.13 837.71 756
4/22/2018 10 AM EDT 1,276.03 837.68 30
4/22/2018 11 AM EDT 1,276.03 837.68 30
4/22/2018 12 PM EDT 1,276.07 837.94 47
4/22/2018 1 PM EDT 1,275.99 837.71 757
4/22/2018 2 PM EDT 1,276.01 837.68 30
4/22/2018 3 PM EDT 1,276.06 837.68 30
4/22/2018 4 PM EDT 1,276.04 837.92 44
4/22/2018 5 PM EDT 1,275.99 837.72 755
4/22/2018 6 PM EDT 1,276.01 837.69 30
4/22/2018 7 PM EDT 1,276.01 837.69 30
4/22/2018 8 PM EDT 1,276.52 837.69 30
4/22/2018 9 PM EDT 1,276.78 837.73 762
4/22/2018 10 PM EDT 1,277.30 837.69 30
4/22/2018 11 PM EDT 1,277.27 837.69 30
4/23/2018 12 AM EDT 1,277.34 837.75 33
4/23/2018 1 AM EDT 1,277.04 837.73 768
4/23/2018 2 AM EDT 1,276.87 837.70 30
4/23/2018 3 AM EDT 1,276.73 837.70 30
4/23/2018 4 AM EDT 1,276.34 837.80 34
4/23/2018 5 AM EDT 1,276.31 837.78 771
4/23/2018 6 AM EDT 1,276.07 837.76 30
4/23/2018 7 AM EDT 1,275.86 837.79 30
4/23/2018 8 AM EDT 1,275.86 837.91 33
4/23/2018 9 AM EDT 1,275.87 837.90 774
4/23/2018 10 AM EDT 1,275.87 837.93 30
4/23/2018 11 AM EDT 1,275.88 837.95 30
4/23/2018 12 PM EDT 1,275.92 838.06 33
4/23/2018 1 PM EDT 1,275.86 838.08 772
4/23/2018 2 PM EDT 1,275.89 838.11 30
4/23/2018 3 PM EDT 1,275.89 838.16 30
4/23/2018 4 PM EDT - 999.00 838.35 42
4/23/2018 5 PM EDT - 999.00 838.23 758
4/23/2018 6 PM EDT 1,275.82 838.22 30
4/23/2018 7 PM EDT 1,276.35 - 999.00 30
4/23/2018 8 PM EDT 1,276.65 838.25 32

Elevations are in feet above sea level. Discharges are in cubic feet per second and are reported at the end of the hour.